Time,TemperatureF,DewpointF,PressureIn,WindDirection,WindDirectionDegrees,WindSpeedMPH,WindSpeedGustMPH,Humidity,HourlyPrecipIn,Conditions,Clouds,dailyrainin,SoftwareType,DateUTC
2013-01-31 00:04:00,38.5,30.3,30.26,SW,219,4.0,4.0,72,0.00,OVC,,0.00,WeatherDisplay:10.37,2013-01-31 08:04:00,
2013-01-31 00:09:00,37.6,30.1,30.26,SSW,194,5.0,5.0,74,0.00,OVC,,0.00,WeatherDisplay:10.37,2013-01-31 08:09:00,
2013-01-31 00:14:00,36.8,29.6,30.26,SSW,203,6.0,6.0,75,0.00,OVC,,0.00,WeatherDisplay:10.37,2013-01-31 08:14:00,
2013-01-31 00:19:00,35.7,28.9,30.26,SW,229,6.0,6.0,76,0.00,OVC,,0.00,WeatherDisplay:10.37,2013-01-31 08:19:00,
2013-01-31 00:24:00,34.8,28.6,30.26,WSW,242,6.0,6.0,78,0.00,OVC,,0.00,WeatherDisplay:10.37,2013-01-31 08:24:00,
2013-01-31 00:29:00,34.6,28.8,30.26,WSW,239,6.0,6.0,79,0.00,OVC,,0.00,WeatherDisplay:10.37,2013-01-31 08:29:00,
2013-01-31 00:35:00,34.5,28.7,30.26,WSW,246,4.6,4.6,79,0.00,OVC,,0.00,WeatherDisplay:10.37,2013-01-31 08:35:00,
2013-01-31 00:40:00,35.3,29.7,30.26,WSW,250,3.5,3.5,80,0.00,OVC,,0.00,WeatherDisplay:10.37,2013-01-31 08:40:00,
2013-01-31 00:45:00,36.7,30.8,30.25,West,264,3.5,3.5,79,0.00,OVC,,0.00,WeatherDisplay:10.37,2013-01-31 08:45:00,
2013-01-31 00:50:00,38.1,31.2,30.25,West,264,2.3,2.3,76,0.00,OVC,,0.00,WeatherDisplay:10.37,2013-01-31 08:50:00,
2013-01-31 00:55:00,37.3,29.1,30.25,South,179,4.0,4.0,72,0.00,OVC,,0.00,WeatherDisplay:10.37,2013-01-31 08:55:00,
2013-01-31 01:00:00,35.4,28.6,30.25,SSW,194,4.6,4.6,76,0.00,OVC,,0.00,WeatherDisplay:10.37,2013-01-31 09:00:00,
2013-01-31 01:05:00,35.8,29.6,30.25,SSW,194,3.5,3.5,78,0.00,OVC,,0.00,WeatherDisplay:10.37,2013-01-31 09:05:00,
2013-01-31 01:10:00,35.8,29.3,30.25,SSW,194,3.5,3.5,77,0.00,OVC,,0.00,WeatherDisplay:10.37,2013-01-31 09:10:00,
2013-01-31 01:16:00,35.4,29.2,30.25,South,190,4.6,4.6,78,0.00,OVC,,0.00,WeatherDisplay:10.37,2013-01-31 09:16:00,
2013-01-31 01:21:00,35.3,29.4,30.25,SSW,196,6.0,6.0,79,0.00,OVC,,0.00,WeatherDisplay:10.37,2013-01-31 09:21:00,
2013-01-31 01:26:00,35.0,29.5,30.25,SSW,198,6.0,6.0,80,0.00,OVC,,0.00,WeatherDisplay:10.37,2013-01-31 09:26:00,
2013-01-31 01:31:00,34.9,29.4,30.25,South,185,5.8,5.8,80,0.00,OVC,,0.00,WeatherDisplay:10.37,2013-01-31 09:31:00,
2013-01-31 01:36:00,35.3,29.7,30.25,SSW,200,6.9,6.9,80,0.00,OVC,,0.00,WeatherDisplay:10.37,2013-01-31 09:36:00,
2013-01-31 01:41:00,36.2,30.3,30.25,SSW,207,7.0,7.0,79,0.00,OVC,,0.00,WeatherDisplay:10.37,2013-01-31 09:41:00,
2013-01-31 01:46:00,36.4,30.2,30.25,SSW,209,5.8,5.8,78,0.00,OVC,,0.00,WeatherDisplay:10.37,2013-01-31 09:46:00,
2013-01-31 01:51:00,36.1,29.9,30.25,SSW,211,4.6,4.6,78,0.00,OVC,,0.00,WeatherDisplay:10.37,2013-01-31 09:51:00,
2013-01-31 01:56:00,35.5,29.3,30.25,SSW,211,3.5,3.5,78,0.00,OVC,,0.00,WeatherDisplay:10.37,2013-01-31 09:56:00,
2013-01-31 02:01:00,35.3,29.4,30.25,WSW,246,3.5,3.5,79,0.00,OVC,,0.00,WeatherDisplay:10.37,2013-01-31 10:01:00,
2013-01-31 02:06:00,35.4,29.8,30.25,West,260,3.5,3.5,80,0.00,OVC,,0.00,WeatherDisplay:10.37,2013-01-31 10:06:00,
2013-01-31 02:11:00,35.7,29.8,30.25,SW,236,3.5,3.5,79,0.00,OVC,,0.00,WeatherDisplay:10.37,2013-01-31 10:11:00,
2013-01-31 02:16:00,35.8,29.9,30.25,SW,236,0.0,0.0,79,0.00,OVC,,0.00,WeatherDisplay:10.37,2013-01-31 10:16:00,
2013-01-31 02:21:00,34.9,28.7,30.25,ENE,72,4.6,4.6,78,0.00,OVC,,0.00,WeatherDisplay:10.37,2013-01-31 10:21:00,
2013-01-31 02:26:00,35.3,29.7,30.25,ESE,112,5.0,5.0,80,0.00,OVC,,0.00,WeatherDisplay:10.37,2013-01-31 10:26:00,
2013-01-31 02:31:00,35.6,30.0,30.25,ESE,121,3.5,3.5,80,0.00,OVC,,0.00,WeatherDisplay:10.37,2013-01-31 10:31:00,
2013-01-31 02:36:00,35.9,30.0,30.25,ESE,121,1.1,1.1,79,0.00,OVC,,0.00,WeatherDisplay:10.37,2013-01-31 10:36:00,
2013-01-31 02:41:00,35.6,29.1,30.25,ESE,121,0.0,0.0,77,0.00,OVC,,0.00,WeatherDisplay:10.37,2013-01-31 10:41:00,
2013-01-31 02:46:00,34.3,28.2,30.25,ESE,121,1.1,0.0,78,0.00,OVC,,0.00,WeatherDisplay:10.37,2013-01-31 10:46:00,
2013-01-31 02:51:00,33.2,27.4,30.25,ESE,121,2.3,2.3,79,0.00,OVC,,0.00,WeatherDisplay:10.37,2013-01-31 10:51:00,
2013-01-31 02:56:00,33.0,28.1,30.25,NNW,347,2.3,2.3,82,0.00,OVC,,0.00,WeatherDisplay:10.37,2013-01-31 10:56:00,
2013-01-31 03:01:00,33.5,28.9,30.25,NNW,347,2.3,2.3,83,0.00,OVC,,0.00,WeatherDisplay:10.37,2013-01-31 11:01:00,
2013-01-31 03:06:00,33.8,28.9,30.25,NNW,347,3.5,3.5,82,0.00,CLR,,0.00,WeatherDisplay:10.37,2013-01-31 11:06:00,
2013-01-31 03:11:00,33.8,28.9,30.25,NNW,347,2.0,3.0,82,0.00,CLR,,0.00,WeatherDisplay:10.37,2013-01-31 11:11:00,
2013-01-31 03:16:00,34.1,29.2,30.25,NNW,347,2.0,3.0,82,0.00,CLR,,0.00,WeatherDisplay:10.37,2013-01-31 11:16:00,
2013-01-31 03:21:00,34.1,28.6,30.25,NNW,347,1.0,3.0,80,0.00,CLR,,0.00,WeatherDisplay:10.37,2013-01-31 11:21:00,
2013-01-31 03:27:00,33.4,28.5,30.25,NNW,347,3.5,3.5,82,0.00,OVC,,0.00,WeatherDisplay:10.37,2013-01-31 11:27:00,
2013-01-31 03:32:00,33.6,29.0,30.25,NNW,333,3.5,3.5,83,0.00,OVC,,0.00,WeatherDisplay:10.37,2013-01-31 11:32:00,
2013-01-31 03:37:00,34.2,29.6,30.25,NNW,333,4.0,4.0,83,0.00,OVC,,0.00,WeatherDisplay:10.37,2013-01-31 11:37:00,
2013-01-31 03:42:00,34.7,30.1,30.25,NNW,327,3.5,3.5,83,0.00,OVC,,0.00,WeatherDisplay:10.37,2013-01-31 11:42:00,
2013-01-31 03:47:00,35.0,30.1,30.25,NNW,327,3.5,3.5,82,0.00,OVC,,0.00,WeatherDisplay:10.37,2013-01-31 11:47:00,
2013-01-31 03:52:00,35.2,30.6,30.25,NNW,345,3.5,3.5,83,0.00,OVC,,0.00,WeatherDisplay:10.37,2013-01-31 11:52:00,
2013-01-31 03:57:00,35.6,30.6,30.25,NNW,340,3.5,3.5,82,0.00,OVC,,0.00,WeatherDisplay:10.37,2013-01-31 11:57:00,
2013-01-31 04:02:00,36.0,31.0,30.25,NNW,340,3.5,3.5,82,0.00,OVC,,0.00,WeatherDisplay:10.37,2013-01-31 12:02:00,
2013-01-31 04:07:00,36.2,30.9,30.25,NNW,340,2.3,2.3,81,0.00,OVC,,0.00,WeatherDisplay:10.37,2013-01-31 12:07:00,
2013-01-31 04:12:00,36.3,30.7,30.25,NNW,340,0.0,0.0,80,0.00,OVC,,0.00,WeatherDisplay:10.37,2013-01-31 12:12:00,
2013-01-31 04:17:00,36.5,30.6,30.25,NNW,340,0.0,0.0,79,0.00,OVC,,0.00,WeatherDisplay:10.37,2013-01-31 12:17:00,
2013-01-31 04:23:00,36.3,30.4,30.24,NNW,340,0.0,0.0,79,0.00,OVC,,0.00,WeatherDisplay:10.37,2013-01-31 12:23:00,
2013-01-31 04:28:00,35.6,30.0,30.25,NNW,340,1.1,1.1,80,0.00,OVC,,0.00,WeatherDisplay:10.37,2013-01-31 12:28:00,
2013-01-31 04:33:00,35.6,30.3,30.25,WSW,246,4.0,4.0,81,0.00,OVC,,0.00,WeatherDisplay:10.37,2013-01-31 12:33:00,
2013-01-31 04:38:00,35.4,28.6,30.25,South,172,3.5,3.5,76,0.00,OVC,,0.00,WeatherDisplay:10.37,2013-01-31 12:38:00,
2013-01-31 04:44:00,32.9,27.7,30.25,SSE,166,4.0,4.0,81,0.00,OVC,,0.00,WeatherDisplay:10.37,2013-01-31 12:44:00,
2013-01-31 04:49:00,31.9,27.6,30.25,SSE,165,5.0,5.0,84,0.00,OVC,,0.00,WeatherDisplay:10.37,2013-01-31 12:49:00,
2013-01-31 04:54:00,31.6,27.3,30.25,SSE,164,5.0,5.0,84,0.00,CLR,,0.00,WeatherDisplay:10.37,2013-01-31 12:54:00,
2013-01-31 04:59:00,30.9,26.9,30.25,South,183,6.0,6.0,85,0.00,OVC,,0.00,WeatherDisplay:10.37,2013-01-31 12:59:00,
2013-01-31 05:04:00,31.1,27.1,30.25,SW,226,6.0,6.0,85,0.00,OVC,,0.00,WeatherDisplay:10.37,2013-01-31 13:04:00,
2013-01-31 05:09:00,30.5,26.8,30.25,SW,232,5.8,5.8,86,0.00,OVC,,0.00,WeatherDisplay:10.37,2013-01-31 13:09:00,
2013-01-31 05:15:00,31.0,27.6,30.25,SW,217,7.0,7.0,87,0.00,OVC,,0.00,WeatherDisplay:10.37,2013-01-31 13:15:00,
2013-01-31 05:20:00,31.1,27.4,30.25,SW,227,6.9,6.9,86,0.00,OVC,,0.00,WeatherDisplay:10.37,2013-01-31 13:20:00,
2013-01-31 05:25:00,30.7,27.3,30.25,SW,228,8.1,8.1,87,0.00,OVC,,0.00,WeatherDisplay:10.37,2013-01-31 13:25:00,
2013-01-31 05:30:00,31.1,27.7,30.25,SSW,213,6.9,6.9,87,0.00,OVC,,0.00,WeatherDisplay:10.37,2013-01-31 13:30:00,
2013-01-31 05:35:00,31.4,28.0,30.25,SSW,211,6.0,6.0,87,0.00,OVC,,0.00,WeatherDisplay:10.37,2013-01-31 13:35:00,
2013-01-31 05:40:00,31.5,27.8,30.25,SW,219,6.9,6.9,86,0.00,OVC,,0.00,WeatherDisplay:10.37,2013-01-31 13:40:00,
2013-01-31 05:45:00,31.5,27.8,30.25,SW,219,5.0,5.0,86,0.00,OVC,,0.00,WeatherDisplay:10.37,2013-01-31 13:45:00,
2013-01-31 05:50:00,30.5,26.5,30.25,SSW,207,5.0,5.0,85,0.00,OVC,,0.00,WeatherDisplay:10.37,2013-01-31 13:50:00,
2013-01-31 05:56:00,29.3,25.6,30.25,SSW,195,5.0,5.0,86,0.00,OVC,,0.00,WeatherDisplay:10.37,2013-01-31 13:56:00,
2013-01-31 06:01:00,29.0,25.6,30.25,SSW,203,5.8,5.8,87,0.00,OVC,,0.00,WeatherDisplay:10.37,2013-01-31 14:01:00,
2013-01-31 06:06:00,29.0,25.9,30.25,SW,227,6.0,6.0,88,0.00,CLR,,0.00,WeatherDisplay:10.37,2013-01-31 14:06:00,
2013-01-31 06:11:00,29.3,26.2,30.25,SW,225,5.0,5.0,88,0.00,CLR,,0.00,WeatherDisplay:10.37,2013-01-31 14:11:00,
2013-01-31 06:16:00,29.4,26.0,30.25,SW,226,4.0,4.0,87,0.00,CLR,,0.00,WeatherDisplay:10.37,2013-01-31 14:16:00,
2013-01-31 06:21:00,29.2,25.8,30.25,SW,225,4.0,4.0,87,0.00,CLR,,0.00,WeatherDisplay:10.37,2013-01-31 14:21:00,
2013-01-31 06:26:00,29.2,25.8,30.25,SW,225,3.0,4.0,87,0.00,CLR,,0.00,WeatherDisplay:10.37,2013-01-31 14:26:00,
2013-01-31 06:32:00,29.0,25.9,30.25,SW,223,5.0,5.0,88,0.00,CLR,,0.00,WeatherDisplay:10.37,2013-01-31 14:32:00,
2013-01-31 06:37:00,29.6,26.5,30.25,SW,223,3.5,3.5,88,0.00,CLR,,0.00,WeatherDisplay:10.37,2013-01-31 14:37:00,
2013-01-31 06:42:00,29.7,26.3,30.25,SW,215,5.0,5.0,87,0.00,CLR,,0.00,WeatherDisplay:10.37,2013-01-31 14:42:00,
2013-01-31 06:47:00,29.2,25.8,30.25,SSW,196,4.6,4.6,87,0.00,CLR,,0.00,WeatherDisplay:10.37,2013-01-31 14:47:00,
2013-01-31 06:52:00,29.2,26.1,30.26,SSW,200,5.0,5.0,88,0.00,CLR,,0.00,WeatherDisplay:10.37,2013-01-31 14:52:00,
2013-01-31 06:57:00,29.3,26.2,30.26,SW,219,6.0,6.0,88,0.00,,,0.00,WeatherDisplay:10.37,2013-01-31 14:57:00,
2013-01-31 07:03:00,29.3,26.2,30.26,SW,228,5.8,5.8,88,0.00,CLR,,0.00,WeatherDisplay:10.37,2013-01-31 15:03:00,
2013-01-31 07:08:00,29.3,26.2,30.26,WSW,242,5.0,5.0,88,0.00,CLR,,0.00,WeatherDisplay:10.37,2013-01-31 15:08:00,
2013-01-31 07:13:00,29.3,26.2,30.26,WSW,242,3.5,3.5,88,0.00,CLR,,0.00,WeatherDisplay:10.37,2013-01-31 15:13:00,
2013-01-31 07:18:00,29.2,26.1,30.26,SW,221,3.5,3.5,88,0.00,CLR,,0.00,WeatherDisplay:10.37,2013-01-31 15:18:00,
2013-01-31 07:23:00,29.5,26.7,30.26,SW,217,3.5,3.5,89,0.00,CLR,,0.00,WeatherDisplay:10.37,2013-01-31 15:23:00,
2013-01-31 07:28:00,30.1,27.3,30.26,SW,217,5.0,5.0,89,0.00,CLR,,0.00,WeatherDisplay:10.37,2013-01-31 15:28:00,
2013-01-31 07:33:00,31.0,28.1,30.26,SW,229,3.5,3.5,89,0.00,CLR,,0.00,WeatherDisplay:10.37,2013-01-31 15:33:00,
2013-01-31 07:38:00,31.9,29.0,30.26,SW,229,3.5,3.5,89,0.00,CLR,,0.00,WeatherDisplay:10.37,2013-01-31 15:38:00,
2013-01-31 07:44:00,33.0,29.8,30.26,SW,229,3.5,3.5,88,0.00,CLR,,0.00,WeatherDisplay:10.37,2013-01-31 15:44:00,
2013-01-31 07:49:00,33.9,30.7,30.26,SW,229,2.3,2.3,88,0.00,CLR,,0.00,WeatherDisplay:10.37,2013-01-31 15:49:00,
2013-01-31 07:54:00,34.9,31.7,30.27,SW,229,1.1,1.1,88,0.00,CLR,,0.00,WeatherDisplay:10.37,2013-01-31 15:54:00,
2013-01-31 07:59:00,35.9,32.4,30.27,SW,229,0.0,0.0,87,0.00,CLR,,0.00,WeatherDisplay:10.37,2013-01-31 15:59:00,
2013-01-31 08:04:00,36.7,32.9,30.27,SW,229,0.0,0.0,86,0.00,OVC,,0.00,WeatherDisplay:10.37,2013-01-31 16:04:00,
2013-01-31 08:09:00,37.8,33.7,30.27,SW,229,0.0,0.0,85,0.00,OVC,,0.00,WeatherDisplay:10.37,2013-01-31 16:09:00,
2013-01-31 08:15:00,39.3,34.6,30.27,SW,229,0.0,0.0,83,0.00,OVC,,0.00,WeatherDisplay:10.37,2013-01-31 16:15:00,
2013-01-31 08:20:00,40.6,34.9,30.27,SSW,208,1.1,1.1,80,0.00,OVC,,0.00,WeatherDisplay:10.37,2013-01-31 16:20:00,
2013-01-31 08:25:00,41.6,35.2,30.27,SSW,208,0.0,0.0,78,0.00,OVC,,0.00,WeatherDisplay:10.37,2013-01-31 16:25:00,
2013-01-31 08:30:00,42.9,35.9,30.27,SSW,208,1.1,0.0,76,0.00,OVC,,0.00,WeatherDisplay:10.37,2013-01-31 16:30:00,
2013-01-31 08:36:00,44.0,36.2,30.28,SSW,208,1.1,1.1,74,0.00,OVC,,0.00,WeatherDisplay:10.37,2013-01-31 16:36:00,
2013-01-31 08:41:00,44.9,35.7,30.28,East,82,3.5,3.5,70,0.00,OVC,,0.00,WeatherDisplay:10.37,2013-01-31 16:41:00,
2013-01-31 08:46:00,45.5,35.5,30.28,East,87,2.3,2.3,68,0.00,OVC,,0.00,WeatherDisplay:10.37,2013-01-31 16:46:00,
2013-01-31 08:51:00,46.2,35.5,30.28,East,87,3.0,3.0,66,0.00,OVC,,0.00,WeatherDisplay:10.37,2013-01-31 16:51:00,
2013-01-31 08:56:00,47.0,35.8,30.28,ENE,62,3.5,3.5,65,0.00,OVC,,0.00,WeatherDisplay:10.37,2013-01-31 16:56:00,
2013-01-31 09:01:00,47.3,35.7,30.28,ENE,63,3.5,3.5,64,0.00,OVC,,0.00,WeatherDisplay:10.37,2013-01-31 17:01:00,
2013-01-31 09:06:00,47.7,36.2,30.28,ENE,61,2.0,4.0,64,0.00,CLR,,0.00,WeatherDisplay:10.37,2013-01-31 17:06:00,
2013-01-31 09:12:00,48.1,35.3,30.28,NE,55,2.0,4.0,61,0.00,CLR,,0.00,WeatherDisplay:10.37,2013-01-31 17:12:00,
2013-01-31 09:17:00,48.6,35.7,30.29,NE,46,4.0,4.0,61,0.00,OVC,,0.00,WeatherDisplay:10.37,2013-01-31 17:17:00,
2013-01-31 09:22:00,48.9,35.2,30.29,NE,49,1.0,4.0,59,0.00,CLR,,0.00,WeatherDisplay:10.37,2013-01-31 17:22:00,
2013-01-31 09:27:00,49.6,35.4,30.29,NE,38,3.5,3.5,58,0.00,OVC,,0.00,WeatherDisplay:10.37,2013-01-31 17:27:00,
2013-01-31 09:32:00,50.0,34.9,30.29,NE,49,3.5,3.5,56,0.00,OVC,,0.00,WeatherDisplay:10.37,2013-01-31 17:32:00,
2013-01-31 09:37:00,50.6,35.5,30.29,NNW,336,3.5,3.5,56,0.00,OVC,,0.00,WeatherDisplay:10.37,2013-01-31 17:37:00,
2013-01-31 09:42:00,51.5,35.9,30.29,NNE,30,3.5,3.5,55,0.00,OVC,,0.00,WeatherDisplay:10.37,2013-01-31 17:42:00,
2013-01-31 09:47:00,52.1,35.9,30.29,NE,41,3.5,3.5,54,0.00,OVC,,0.00,WeatherDisplay:10.37,2013-01-31 17:47:00,
2013-01-31 09:52:00,52.1,35.5,30.29,ENE,58,5.0,5.0,53,0.00,OVC,,0.00,WeatherDisplay:10.37,2013-01-31 17:52:00,
2013-01-31 09:58:00,51.6,35.0,30.29,NE,40,4.0,4.0,53,0.00,OVC,,0.00,WeatherDisplay:10.37,2013-01-31 17:58:00,
2013-01-31 10:03:00,52.2,35.1,30.29,NE,51,4.0,4.0,52,0.00,OVC,,0.00,WeatherDisplay:10.37,2013-01-31 18:03:00,
2013-01-31 10:08:00,52.6,35.0,30.29,NE,55,4.6,4.6,51,0.00,OVC,,0.00,WeatherDisplay:10.37,2013-01-31 18:08:00,
2013-01-31 10:13:00,52.7,35.1,30.29,ENE,63,4.6,4.6,51,0.00,OVC,,0.00,WeatherDisplay:10.37,2013-01-31 18:13:00,
2013-01-31 10:19:00,52.9,34.8,30.29,ENE,57,4.6,4.6,50,0.00,OVC,,0.00,WeatherDisplay:10.37,2013-01-31 18:19:00,
2013-01-31 10:24:00,53.5,34.8,30.29,NE,49,2.3,0.0,49,0.00,OVC,,0.00,WeatherDisplay:10.37,2013-01-31 18:24:00,
2013-01-31 10:29:00,54.6,35.3,30.29,NE,49,3.5,3.5,48,0.00,OVC,,0.00,WeatherDisplay:10.37,2013-01-31 18:29:00,
2013-01-31 10:34:00,55.5,35.6,30.29,NNE,22,2.3,2.3,47,0.00,OVC,,0.00,WeatherDisplay:10.37,2013-01-31 18:34:00,
2013-01-31 10:39:00,56.4,34.7,30.29,NNE,18,3.5,3.5,44,0.00,OVC,,0.00,WeatherDisplay:10.37,2013-01-31 18:39:00,
2013-01-31 10:44:00,57.2,35.5,30.28,NNE,33,3.5,3.5,44,0.00,OVC,,0.00,WeatherDisplay:10.37,2013-01-31 18:44:00,
2013-01-31 10:50:00,57.6,34.7,30.28,ENE,60,5.8,5.8,42,0.00,OVC,,0.00,WeatherDisplay:10.37,2013-01-31 18:50:00,
2013-01-31 10:55:00,57.0,34.7,30.28,NNE,20,3.5,3.5,43,0.00,OVC,,0.00,WeatherDisplay:10.37,2013-01-31 18:55:00,
2013-01-31 11:00:00,57.8,36.0,30.27,NE,40,3.0,3.0,44,0.00,OVC,,0.00,WeatherDisplay:10.37,2013-01-31 19:00:00,
2013-01-31 11:05:00,58.3,35.9,30.27,NE,55,5.0,5.0,43,0.00,OVC,,0.00,WeatherDisplay:10.37,2013-01-31 19:05:00,
2013-01-31 11:11:00,58.4,35.4,30.27,NE,43,4.6,4.6,42,0.00,OVC,,0.00,WeatherDisplay:10.37,2013-01-31 19:11:00,
2013-01-31 11:16:00,59.2,35.5,30.27,NNE,25,4.6,4.6,41,0.00,OVC,,0.00,WeatherDisplay:10.37,2013-01-31 19:16:00,
2013-01-31 11:21:00,60.8,35.0,30.27,NE,38,5.8,5.8,38,0.00,OVC,,0.00,WeatherDisplay:10.37,2013-01-31 19:21:00,
2013-01-31 11:26:00,61.3,34.8,30.26,NNW,346,3.5,3.5,37,0.00,OVC,,0.00,WeatherDisplay:10.37,2013-01-31 19:26:00,
2013-01-31 11:31:00,62.3,35.0,30.26,North,9,5.0,5.0,36,0.00,OVC,,0.00,WeatherDisplay:10.37,2013-01-31 19:31:00,
2013-01-31 11:36:00,62.3,35.0,30.26,North,353,2.0,4.0,36,0.00,CLR,,0.00,WeatherDisplay:10.37,2013-01-31 19:36:00,
2013-01-31 11:41:00,63.0,34.9,30.26,North,360,2.0,5.0,35,0.00,CLR,,0.00,WeatherDisplay:10.37,2013-01-31 19:41:00,
2013-01-31 11:46:00,63.4,33.7,30.25,NE,40,3.0,6.0,33,0.00,CLR,,0.00,WeatherDisplay:10.37,2013-01-31 19:46:00,
2013-01-31 11:52:00,62.7,33.2,30.25,NE,38,3.0,7.0,33,0.00,CLR,,0.00,WeatherDisplay:10.37,2013-01-31 19:52:00,
2013-01-31 11:57:00,62.9,34.1,30.25,NE,47,6.9,6.9,34,0.00,OVC,,0.00,WeatherDisplay:10.37,2013-01-31 19:57:00,
2013-01-31 12:02:00,62.6,33.8,30.25,NE,45,6.0,6.0,34,0.00,OVC,,0.00,WeatherDisplay:10.37,2013-01-31 20:02:00,
2013-01-31 12:07:00,62.6,33.8,30.25,NE,44,8.0,8.0,34,0.00,OVC,,0.00,WeatherDisplay:10.37,2013-01-31 20:07:00,
2013-01-31 12:12:00,62.8,33.2,30.24,ENE,67,9.2,9.2,33,0.00,OVC,,0.00,WeatherDisplay:10.37,2013-01-31 20:12:00,
2013-01-31 12:17:00,62.4,33.6,30.24,ENE,78,6.9,6.9,34,0.00,OVC,,0.00,WeatherDisplay:10.37,2013-01-31 20:17:00,
2013-01-31 12:22:00,62.4,33.6,30.24,East,80,6.9,6.9,34,0.00,OVC,,0.00,WeatherDisplay:10.37,2013-01-31 20:22:00,
2013-01-31 12:27:00,62.3,33.6,30.23,NE,44,8.1,8.1,34,0.00,OVC,,0.00,WeatherDisplay:10.37,2013-01-31 20:27:00,
2013-01-31 12:32:00,62.9,34.1,30.23,ENE,76,6.9,6.9,34,0.00,OVC,,0.00,WeatherDisplay:10.37,2013-01-31 20:32:00,
2013-01-31 12:38:00,64.2,34.5,30.23,East,84,6.9,6.9,33,0.00,OVC,,0.00,WeatherDisplay:10.37,2013-01-31 20:38:00,
2013-01-31 12:43:00,64.2,33.7,30.22,East,87,6.0,6.0,32,0.00,OVC,,0.00,WeatherDisplay:10.37,2013-01-31 20:43:00,
2013-01-31 12:48:00,64.5,33.2,30.22,NNE,19,5.8,5.8,31,0.00,OVC,,0.00,WeatherDisplay:10.37,2013-01-31 20:48:00,
2013-01-31 12:53:00,64.4,33.1,30.22,NE,48,8.1,8.1,31,0.00,OVC,,0.00,WeatherDisplay:10.37,2013-01-31 20:53:00,
2013-01-31 12:58:00,64.9,33.5,30.21,NNW,342,3.5,3.5,31,0.00,OVC,,0.00,WeatherDisplay:10.37,2013-01-31 20:58:00,
2013-01-31 13:03:00,64.7,33.3,30.21,ENE,59,7.0,7.0,31,0.00,OVC,,0.00,WeatherDisplay:10.37,2013-01-31 21:03:00,
2013-01-31 13:08:00,64.5,33.2,30.21,NE,36,5.8,5.8,31,0.00,OVC,,0.00,WeatherDisplay:10.37,2013-01-31 21:08:00,
2013-01-31 13:13:00,65.1,33.7,30.20,NNW,336,3.5,3.5,31,0.00,OVC,,0.00,WeatherDisplay:10.37,2013-01-31 21:13:00,
2013-01-31 13:19:00,65.2,33.8,30.20,NNE,25,9.2,9.2,31,0.00,OVC,,0.00,WeatherDisplay:10.37,2013-01-31 21:19:00,
2013-01-31 13:24:00,65.2,33.8,30.19,NE,39,9.2,9.2,31,0.00,OVC,,0.00,WeatherDisplay:10.37,2013-01-31 21:24:00,
2013-01-31 13:29:00,65.6,33.3,30.19,NNE,22,9.2,9.2,30,0.00,OVC,,0.00,WeatherDisplay:10.37,2013-01-31 21:29:00,
2013-01-31 13:34:00,65.8,33.5,30.19,ENE,62,10.0,10.0,30,0.00,OVC,,0.00,WeatherDisplay:10.37,2013-01-31 21:34:00,
2013-01-31 13:39:00,65.3,33.0,30.19,ENE,64,4.6,4.6,30,0.00,OVC,,0.00,WeatherDisplay:10.37,2013-01-31 21:39:00,
2013-01-31 13:44:00,65.0,32.8,30.19,ESE,118,6.9,6.9,30,0.00,OVC,,0.00,WeatherDisplay:10.37,2013-01-31 21:44:00,
2013-01-31 13:49:00,65.1,32.9,30.19,North,9,7.0,7.0,30,0.00,OVC,,0.00,WeatherDisplay:10.37,2013-01-31 21:49:00,
2013-01-31 13:55:00,65.7,33.4,30.18,ENE,59,3.5,3.5,30,0.00,OVC,,0.00,WeatherDisplay:10.37,2013-01-31 21:55:00,
2013-01-31 14:00:00,66.6,33.3,30.18,NE,46,8.1,8.1,29,0.00,OVC,,0.00,WeatherDisplay:10.37,2013-01-31 22:00:00,
2013-01-31 14:05:00,66.4,33.2,30.18,North,355,5.8,5.8,29,0.00,OVC,,0.00,WeatherDisplay:10.37,2013-01-31 22:05:00,
2013-01-31 14:10:00,66.0,33.7,30.18,East,82,7.0,7.0,30,0.00,OVC,,0.00,WeatherDisplay:10.37,2013-01-31 22:10:00,
2013-01-31 14:15:00,65.0,33.6,30.17,ESE,111,2.3,2.3,31,0.00,OVC,,0.00,WeatherDisplay:10.37,2013-01-31 22:15:00,
2013-01-31 14:20:00,65.4,33.1,30.17,SE,138,9.2,9.2,30,0.00,OVC,,0.00,WeatherDisplay:10.37,2013-01-31 22:20:00,
2013-01-31 14:25:00,65.8,33.5,30.17,ENE,60,5.0,5.0,30,0.00,OVC,,0.00,WeatherDisplay:10.37,2013-01-31 22:25:00,
2013-01-31 14:30:00,66.1,33.7,30.17,NE,47,8.0,8.0,30,0.00,OVC,,0.00,WeatherDisplay:10.37,2013-01-31 22:30:00,
2013-01-31 14:35:00,66.4,33.2,30.17,NE,49,11.5,11.5,29,0.00,OVC,,0.00,WeatherDisplay:10.37,2013-01-31 22:35:00,
2013-01-31 14:40:00,65.8,33.5,30.17,NE,56,10.4,10.4,30,0.00,OVC,,0.00,WeatherDisplay:10.37,2013-01-31 22:40:00,
2013-01-31 14:45:00,65.4,33.1,30.16,East,97,9.0,9.0,30,0.00,OVC,,0.00,WeatherDisplay:10.37,2013-01-31 22:45:00,
2013-01-31 14:50:00,65.8,33.5,30.16,NE,35,11.5,11.5,30,0.00,OVC,,0.00,WeatherDisplay:10.37,2013-01-31 22:50:00,
2013-01-31 14:55:00,66.2,33.0,30.16,North,360,5.8,5.8,29,0.00,OVC,,0.00,WeatherDisplay:10.37,2013-01-31 22:55:00,
2013-01-31 15:01:00,66.8,33.5,30.16,NE,48,8.0,8.0,29,0.00,OVC,,0.00,WeatherDisplay:10.37,2013-01-31 23:01:00,
2013-01-31 15:06:00,66.8,34.3,30.16,ENE,75,6.9,6.9,30,0.00,OVC,,0.00,WeatherDisplay:10.37,2013-01-31 23:06:00,
2013-01-31 15:11:00,66.1,32.9,30.16,ENE,70,8.1,8.1,29,0.00,OVC,,0.00,WeatherDisplay:10.37,2013-01-31 23:11:00,
2013-01-31 15:16:00,66.1,32.9,30.16,NE,53,9.0,9.0,29,0.00,OVC,,0.00,WeatherDisplay:10.37,2013-01-31 23:16:00,
2013-01-31 15:22:00,66.1,32.9,30.16,NE,45,5.0,9.0,29,0.00,CLR,,0.00,WeatherDisplay:10.37,2013-01-31 23:22:00,
2013-01-31 15:27:00,65.8,32.6,30.16,East,86,10.4,10.4,29,0.00,OVC,,0.00,WeatherDisplay:10.37,2013-01-31 23:27:00,
2013-01-31 15:32:00,65.2,33.0,30.15,ENE,71,10.4,10.4,30,0.00,OVC,,0.00,WeatherDisplay:10.37,2013-01-31 23:32:00,
2013-01-31 15:37:00,65.3,33.0,30.15,ENE,57,3.5,3.5,30,0.00,OVC,,0.00,WeatherDisplay:10.37,2013-01-31 23:37:00,
2013-01-31 15:42:00,65.7,32.5,30.15,NE,49,2.3,2.3,29,0.00,OVC,,0.00,WeatherDisplay:10.37,2013-01-31 23:42:00,
2013-01-31 15:47:00,67.1,34.6,30.15,ENE,65,1.1,1.1,30,0.00,OVC,,0.00,WeatherDisplay:10.37,2013-01-31 23:47:00,
2013-01-31 15:52:00,67.2,33.0,30.15,East,80,10.4,10.4,28,0.00,OVC,,0.00,WeatherDisplay:10.37,2013-01-31 23:52:00,
2013-01-31 15:58:00,65.8,32.6,30.15,NE,51,7.0,7.0,29,0.00,OVC,,0.00,WeatherDisplay:10.37,2013-01-31 23:58:00,
2013-01-31 16:03:00,65.7,32.5,30.15,NNE,26,3.5,3.5,29,0.00,OVC,,0.00,WeatherDisplay:10.37,2013-02-01 00:03:00,
2013-01-31 16:08:00,66.0,32.8,30.15,NE,54,4.0,4.0,29,0.00,OVC,,0.00,WeatherDisplay:10.37,2013-02-01 00:08:00,
2013-01-31 16:13:00,66.1,32.9,30.14,ENE,65,3.5,3.5,29,0.00,OVC,,0.00,WeatherDisplay:10.37,2013-02-01 00:13:00,
2013-01-31 16:18:00,65.9,34.4,30.14,ENE,77,2.0,2.0,31,0.00,OVC,,0.00,WeatherDisplay:10.37,2013-02-01 00:18:00,
2013-01-31 16:23:00,66.2,32.1,30.15,NE,51,5.0,5.0,28,0.00,OVC,,0.00,WeatherDisplay:10.37,2013-02-01 00:23:00,
2013-01-31 16:29:00,66.0,31.9,30.14,NE,52,3.5,3.5,28,0.00,OVC,,0.00,WeatherDisplay:10.37,2013-02-01 00:29:00,
2013-01-31 16:34:00,65.7,32.5,30.14,NE,52,5.8,5.8,29,0.00,OVC,,0.00,WeatherDisplay:10.37,2013-02-01 00:34:00,
2013-01-31 16:39:00,65.4,32.3,30.14,NE,54,4.0,4.0,29,0.00,OVC,,0.00,WeatherDisplay:10.37,2013-02-01 00:39:00,
2013-01-31 16:44:00,65.0,31.9,30.14,NE,53,6.0,6.0,29,0.00,OVC,,0.00,WeatherDisplay:10.37,2013-02-01 00:44:00,
2013-01-31 16:49:00,64.5,32.4,30.14,NE,43,4.6,4.6,30,0.00,OVC,,0.00,WeatherDisplay:10.37,2013-02-01 00:49:00,
2013-01-31 16:54:00,64.3,32.2,30.14,NE,46,3.5,3.5,30,0.00,OVC,,0.00,WeatherDisplay:10.37,2013-02-01 00:54:00,
2013-01-31 16:59:00,63.8,31.7,30.14,NE,46,4.0,4.0,30,0.00,OVC,,0.00,WeatherDisplay:10.37,2013-02-01 00:59:00,
2013-01-31 17:04:00,63.4,31.4,30.14,NE,44,4.0,4.0,30,0.00,OVC,,0.00,WeatherDisplay:10.37,2013-02-01 01:04:00,
2013-01-31 17:10:00,62.9,31.8,30.14,NE,49,5.0,5.0,31,0.00,OVC,,0.00,WeatherDisplay:10.37,2013-02-01 01:10:00,
2013-01-31 17:15:00,62.3,31.3,30.14,NE,49,4.0,4.0,31,0.00,OVC,,0.00,WeatherDisplay:10.37,2013-02-01 01:15:00,
2013-01-31 17:20:00,61.6,31.4,30.15,NE,49,4.0,4.0,32,0.00,OVC,,0.00,WeatherDisplay:10.37,2013-02-01 01:20:00,
2013-01-31 17:25:00,61.2,31.8,30.15,NE,49,3.5,3.5,33,0.00,OVC,,0.00,WeatherDisplay:10.37,2013-02-01 01:25:00,
2013-01-31 17:30:00,60.8,31.5,30.15,NE,49,4.0,4.0,33,0.00,CLR,,0.00,WeatherDisplay:10.37,2013-02-01 01:30:00,
2013-01-31 17:36:00,60.1,31.6,30.15,ENE,59,4.0,4.0,34,0.00,OVC,,0.00,WeatherDisplay:10.37,2013-02-01 01:36:00,
2013-01-31 17:41:00,60.1,32.3,30.14,ENE,62,3.5,3.5,35,0.00,OVC,,0.00,WeatherDisplay:10.37,2013-02-01 01:41:00,
2013-01-31 17:46:00,60.1,31.6,30.15,ENE,62,3.5,3.5,34,0.00,OVC,,0.00,WeatherDisplay:10.37,2013-02-01 01:46:00,
2013-01-31 17:51:00,60.0,32.2,30.15,ENE,62,2.3,2.3,35,0.00,OVC,,0.00,WeatherDisplay:10.37,2013-02-01 01:51:00,
2013-01-31 17:56:00,59.3,31.6,30.15,ENE,62,0.0,1.0,35,0.00,CLR,,0.00,WeatherDisplay:10.37,2013-02-01 01:56:00,
2013-01-31 18:01:00,58.4,31.5,30.15,ENE,62,0.0,1.0,36,0.00,CLR,,0.00,WeatherDisplay:10.37,2013-02-01 02:01:00,
2013-01-31 18:06:00,58.0,31.8,30.15,ENE,62,0.0,1.0,37,0.00,CLR,,0.00,WeatherDisplay:10.37,2013-02-01 02:06:00,
2013-01-31 18:12:00,58.0,31.8,30.15,ENE,62,0.0,1.0,37,0.00,CLR,,0.00,WeatherDisplay:10.37,2013-02-01 02:12:00,
2013-01-31 18:17:00,57.8,31.7,30.15,ENE,62,0.0,0.0,37,0.00,OVC,,0.00,WeatherDisplay:10.37,2013-02-01 02:17:00,
2013-01-31 18:22:00,56.5,31.2,30.15,WSW,241,4.0,4.0,38,0.00,OVC,,0.00,WeatherDisplay:10.37,2013-02-01 02:22:00,
2013-01-31 18:27:00,54.8,31.5,30.15,WSW,241,3.5,3.5,41,0.00,OVC,,0.00,WeatherDisplay:10.37,2013-02-01 02:27:00,
2013-01-31 18:32:00,55.2,31.9,30.16,WSW,241,4.0,4.0,41,0.00,OVC,,0.00,WeatherDisplay:10.37,2013-02-01 02:32:00,
2013-01-31 18:38:00,55.1,31.8,30.16,WSW,246,5.0,5.0,41,0.00,OVC,,0.00,WeatherDisplay:10.37,2013-02-01 02:38:00,
2013-01-31 18:43:00,54.4,31.2,30.16,WSW,255,5.0,5.0,41,0.00,OVC,,0.00,WeatherDisplay:10.37,2013-02-01 02:43:00,
2013-01-31 18:48:00,54.2,31.6,30.15,West,263,3.5,3.6,42,0.00,OVC,,0.00,WeatherDisplay:10.37,2013-02-01 02:48:00,
2013-01-31 18:54:00,52.1,30.8,30.15,SW,236,6.0,6.0,44,0.00,OVC,,0.00,WeatherDisplay:10.37,2013-02-01 02:54:00,
2013-01-31 18:59:00,50.5,31.5,30.16,WSW,242,5.0,5.0,48,0.00,OVC,,0.00,WeatherDisplay:10.37,2013-02-01 02:59:00,
2013-01-31 19:04:00,49.9,31.0,30.15,WSW,238,6.0,6.0,48,0.00,OVC,,0.00,WeatherDisplay:10.37,2013-02-01 03:04:00,
2013-01-31 19:09:00,49.4,31.5,30.15,SW,235,6.9,6.9,50,0.00,OVC,,0.00,WeatherDisplay:10.37,2013-02-01 03:09:00,
2013-01-31 19:14:00,51.6,32.5,30.15,WSW,244,5.0,5.0,48,0.00,OVC,,0.00,WeatherDisplay:10.37,2013-02-01 03:14:00,
2013-01-31 19:19:00,51.4,31.3,30.16,SW,233,6.0,6.0,46,0.00,OVC,,0.00,WeatherDisplay:10.37,2013-02-01 03:19:00,
2013-01-31 19:24:00,49.2,31.3,30.16,SW,232,5.8,5.8,50,0.00,OVC,,0.00,WeatherDisplay:10.37,2013-02-01 03:24:00,
2013-01-31 19:30:00,49.7,31.8,30.16,WSW,242,4.6,4.6,50,0.00,OVC,,0.00,WeatherDisplay:10.37,2013-02-01 03:30:00,
2013-01-31 19:35:00,47.6,31.3,30.16,SW,226,5.0,5.0,53,0.00,OVC,,0.00,WeatherDisplay:10.37,2013-02-01 03:35:00,
2013-01-31 19:40:00,46.4,30.6,30.16,SW,223,5.0,5.0,54,0.00,OVC,,0.00,WeatherDisplay:10.37,2013-02-01 03:40:00,
2013-01-31 19:45:00,45.3,31.0,30.17,SSW,212,4.6,4.6,57,0.00,OVC,,0.00,WeatherDisplay:10.37,2013-02-01 03:45:00,
2013-01-31 19:50:00,44.7,31.2,30.17,SSW,210,5.0,5.0,59,0.00,OVC,,0.00,WeatherDisplay:10.37,2013-02-01 03:50:00,
2013-01-31 19:56:00,45.6,31.2,30.17,SSE,160,6.0,6.0,57,0.00,OVC,,0.00,WeatherDisplay:10.37,2013-02-01 03:56:00,
2013-01-31 20:01:00,44.9,31.4,30.17,SW,217,7.0,7.0,59,0.00,OVC,,0.00,WeatherDisplay:10.37,2013-02-01 04:01:00,
2013-01-31 20:06:00,44.3,31.7,30.17,SSW,206,6.0,6.0,61,0.00,OVC,,0.00,WeatherDisplay:10.37,2013-02-01 04:06:00,
2013-01-31 20:11:00,43.9,31.3,30.17,SSW,192,6.9,6.9,61,0.00,OVC,,0.00,WeatherDisplay:10.37,2013-02-01 04:11:00,
2013-01-31 20:16:00,44.0,31.4,30.17,SSW,200,6.9,6.9,61,0.00,OVC,,0.00,WeatherDisplay:10.37,2013-02-01 04:16:00,
2013-01-31 20:21:00,44.3,31.7,30.17,SW,223,9.2,9.2,61,0.00,OVC,,0.00,WeatherDisplay:10.37,2013-02-01 04:21:00,
2013-01-31 20:26:00,43.6,31.4,30.17,SSW,205,7.0,7.0,62,0.00,OVC,,0.00,WeatherDisplay:10.37,2013-02-01 04:26:00,
2013-01-31 20:32:00,43.3,31.6,30.17,SSW,206,7.0,8.0,63,0.00,CLR,,0.00,WeatherDisplay:10.37,2013-02-01 04:32:00,
2013-01-31 20:37:00,43.2,31.4,30.17,SSW,197,7.0,7.0,63,0.00,OVC,,0.00,WeatherDisplay:10.37,2013-02-01 04:37:00,
2013-01-31 20:42:00,43.1,32.1,30.18,SSW,194,8.1,8.1,65,0.00,OVC,,0.00,WeatherDisplay:10.37,2013-02-01 04:42:00,
2013-01-31 20:47:00,43.1,32.1,30.17,SSW,197,7.0,7.0,65,0.00,OVC,,0.00,WeatherDisplay:10.37,2013-02-01 04:47:00,
2013-01-31 20:52:00,43.5,32.1,30.17,SSW,200,7.0,7.0,64,0.00,OVC,,0.00,WeatherDisplay:10.37,2013-02-01 04:52:00,
2013-01-31 20:57:00,42.4,31.8,30.17,SSW,211,9.2,9.2,66,0.00,OVC,,0.00,WeatherDisplay:10.37,2013-02-01 04:57:00,
2013-01-31 21:00:00,42.3,32.1,30.18,SSW,201,9.2,9.2,67,0.00,OVC,,0.00,WeatherDisplay:10.37,2013-02-01 05:00:00,
2013-01-31 21:03:00,42.1,31.9,30.17,SSW,200,7.0,7.0,67,0.00,OVC,,0.00,WeatherDisplay:10.37,2013-02-01 05:03:00,
2013-01-31 21:08:00,42.1,31.9,30.17,SSW,205,7.0,7.0,67,0.00,OVC,,0.00,WeatherDisplay:10.37,2013-02-01 05:08:00,
2013-01-31 21:13:00,42.0,31.8,30.17,SSW,198,7.0,7.2,67,0.00,OVC,,0.00,WeatherDisplay:10.37,2013-02-01 05:13:00,
2013-01-31 21:18:00,42.0,32.2,30.18,SSW,204,8.1,8.1,68,0.00,OVC,,0.00,WeatherDisplay:10.37,2013-02-01 05:18:00,
2013-01-31 21:24:00,42.2,32.4,30.17,SW,214,9.2,9.2,68,0.00,OVC,,0.00,WeatherDisplay:10.37,2013-02-01 05:24:00,
2013-01-31 21:29:00,42.3,32.1,30.17,SSW,209,7.0,7.0,67,0.00,OVC,,0.00,WeatherDisplay:10.37,2013-02-01 05:29:00,
2013-01-31 21:34:00,41.8,31.6,30.17,SSW,203,7.0,7.0,67,0.00,OVC,,0.00,WeatherDisplay:10.37,2013-02-01 05:34:00,
2013-01-31 21:39:00,41.6,31.8,30.17,SSW,207,8.1,8.1,68,0.00,OVC,,0.00,WeatherDisplay:10.37,2013-02-01 05:39:00,
2013-01-31 21:44:00,41.9,32.1,30.17,SW,223,9.2,9.2,68,0.00,OVC,,0.00,WeatherDisplay:10.37,2013-02-01 05:44:00,
2013-01-31 21:49:00,41.8,31.6,30.17,SW,215,8.1,8.1,67,0.00,OVC,,0.00,WeatherDisplay:10.37,2013-02-01 05:49:00,
2013-01-31 21:54:00,41.2,31.4,30.17,SSW,203,4.6,4.6,68,0.00,OVC,,0.00,WeatherDisplay:10.37,2013-02-01 05:54:00,
2013-01-31 21:59:00,40.6,31.2,30.17,SSW,192,5.0,5.0,69,0.00,OVC,,0.00,WeatherDisplay:10.37,2013-02-01 05:59:00,
2013-01-31 22:04:00,40.2,31.2,30.17,SSW,203,5.0,5.0,70,0.00,OVC,,0.00,WeatherDisplay:10.37,2013-02-01 06:04:00,
2013-01-31 22:09:00,40.2,31.2,30.17,SW,217,4.0,4.0,70,0.00,OVC,,0.00,WeatherDisplay:10.37,2013-02-01 06:09:00,
2013-01-31 22:15:00,40.3,30.9,30.17,SW,217,1.1,0.0,69,0.00,OVC,,0.00,WeatherDisplay:10.37,2013-02-01 06:15:00,
2013-01-31 22:20:00,40.2,30.8,30.17,ESE,120,2.3,2.3,69,0.00,OVC,,0.00,WeatherDisplay:10.37,2013-02-01 06:20:00,
2013-01-31 22:25:00,39.7,31.1,30.17,ESE,120,4.0,4.0,71,0.00,OVC,,0.00,WeatherDisplay:10.37,2013-02-01 06:25:00,
2013-01-31 22:30:00,39.8,31.5,30.17,SE,131,4.0,4.0,72,0.00,OVC,,0.00,WeatherDisplay:10.37,2013-02-01 06:30:00,
2013-01-31 22:35:00,40.2,31.5,30.17,SSE,157,4.0,4.0,71,0.00,OVC,,0.00,WeatherDisplay:10.37,2013-02-01 06:35:00,
2013-01-31 22:40:00,40.2,31.2,30.18,SSE,164,5.0,5.0,70,0.00,OVC,,0.00,WeatherDisplay:10.37,2013-02-01 06:40:00,
2013-01-31 22:45:00,39.1,29.8,30.17,WSW,248,4.0,4.0,69,0.00,OVC,,0.00,WeatherDisplay:10.37,2013-02-01 06:45:00,
2013-01-31 22:50:00,38.2,30.0,30.17,West,272,3.5,3.5,72,0.00,OVC,,0.00,WeatherDisplay:10.37,2013-02-01 06:50:00,
2013-01-31 22:55:00,38.2,30.3,30.18,West,272,3.5,3.5,73,0.00,OVC,,0.00,WeatherDisplay:10.37,2013-02-01 06:55:00,
2013-01-31 23:00:00,37.6,29.7,30.17,West,272,1.1,0.0,73,0.00,OVC,,0.00,WeatherDisplay:10.37,2013-02-01 07:00:00,
2013-01-31 23:06:00,37.0,29.1,30.17,SSW,213,2.3,2.3,73,0.00,OVC,,0.00,WeatherDisplay:10.37,2013-02-01 07:06:00,
2013-01-31 23:11:00,36.6,29.4,30.18,SSW,206,1.1,1.1,75,0.00,OVC,,0.00,WeatherDisplay:10.37,2013-02-01 07:11:00,
2013-01-31 23:16:00,37.6,30.7,30.18,SSW,206,0.0,0.0,76,0.00,OVC,,0.00,WeatherDisplay:10.37,2013-02-01 07:16:00,
2013-01-31 23:21:00,38.9,31.0,30.18,SSW,206,3.0,3.0,73,0.00,OVC,,0.00,WeatherDisplay:10.37,2013-02-01 07:21:00,
2013-01-31 23:26:00,39.7,31.1,30.18,SSW,207,3.5,3.5,71,0.00,OVC,,0.00,WeatherDisplay:10.37,2013-02-01 07:26:00,
2013-01-31 23:31:00,39.5,30.5,30.18,SSW,207,3.5,3.5,70,0.00,OVC,,0.00,WeatherDisplay:10.37,2013-02-01 07:31:00,
2013-01-31 23:36:00,38.4,29.8,30.18,SSW,207,5.0,5.0,71,0.00,CLR,,0.00,WeatherDisplay:10.37,2013-02-01 07:36:00,
2013-01-31 23:42:00,38.0,30.1,30.18,SSW,207,5.0,5.0,73,0.00,CLR,,0.00,WeatherDisplay:10.37,2013-02-01 07:42:00,
2013-01-31 23:47:00,37.5,30.0,30.18,SW,217,5.0,5.0,74,0.00,OVC,,0.00,WeatherDisplay:10.37,2013-02-01 07:47:00,
2013-01-31 23:52:00,38.1,30.2,30.18,SW,219,5.0,5.0,73,0.00,OVC,,0.00,WeatherDisplay:10.37,2013-02-01 07:52:00,
2013-01-31 23:57:00,37.6,29.4,30.18,SW,219,4.0,4.0,72,0.00,OVC,,0.00,WeatherDisplay:10.37,2013-02-01 07:57:00,